[[{"header":{"parameterUnit":"m.s-1","parameterCategory":1,"la1":30.2991,"la2":30.254,"lo1":-89.0895,"lo2":-89.0444,"dy":0.0017,"dx":0.0017,"nx":28,"ny":28,"refTime":"2023-07-22T09:00:00:Z","depth":0,"parameterNumber":2,"parameterNumberName":"U-component_of_WINDS"},"data":[0,0,0,0,0,0,0,0,0,0,0,0,0,0,0,0,0,0,0,0,0,0,0,0,0,0,0,0,0,0,0,0,0,0,0,0,0,0,0,0,0,0,0,0,0,0,0,0,0,0,0,0,0,0,0,0,0,0,0.4086,0.4093,0,0.4701,0.4708,0.4715,0.493,0.4927,0.4925,0.4922,0.5586,0.5606,0.5625,0,0,0,0,0,0,0,0,0,0,0,0,0,0.312,0.3136,0.4085,0.4093,0.4101,0.47,0.4709,0.4717,0.493,0.4927,0.4924,0.4921,0.558,0.5603,0.5627,0,0,0,0,0,0,0,0,0,0,0,0,0,0.3618,0.3142,0.4084,0.4278,0.4302,0.4698,0.4709,0.4719,0.4931,0.4927,0.4923,0.492,0.5572,0.5601,0.5631,0.5889,0,0,0.5722,0.5735,0,0,0,0,0,0,0,0,0.359,0.3654,0.4242,0.4266,0.4293,0.4734,0.4612,0.5113,0.4932,0.4693,0.4922,0.4918,0.5308,0.5359,0.5484,0.592,0.5949,0.5725,0.5743,0.5756,0.5764,0,0,0,0,0,0,0,0.3555,0.3629,0.433,0.4251,0.4281,0.4343,0.441,0.4708,0.5015,0.4714,0.473,0.4798,0.5321,0.5455,0.5501,0.5959,0.5724,0.5751,0.5769,0.5781,0.6636,0.664,0,0,0,0,0,0,0.3484,0.3598,0.4311,0.4349,0.3924,0.4363,0.4438,0.4597,0.5012,0.5071,0.4801,0.4806,0.5405,0.5466,0.5525,0.5857,0.5756,0.5784,0.5801,0.6631,0.6637,0.6642,0,0,0,0,0,0,0.3462,0.3545,0.4286,0.3978,0.4077,0.4384,0.456,0.4611,0.4744,0.5077,0.5136,0.4879,0.5405,0.5483,0.5794,0.5883,0.5797,0.5824,0.6626,0.6633,0.6639,0.6521,0,0,0,0,0,0,0.3433,0.3536,0.3633,0.3978,0.4092,0.4537,0.4566,0.4626,0.4791,0.4804,0.5167,0.5224,0.5408,0.5748,0.5824,0.5923,0.5848,0.662,0.6629,0.6637,0.6519,0.6523,0.6527,0,0,0,0,0,0.3398,0.3584,0.3637,0.3722,0.4218,0.4542,0.4609,0.4807,0.4797,0.4902,0.5113,0.5212,0.5856,0.5778,0.5866,0.5975,0.6615,0.6626,0.6637,0.6517,0.6522,0.6527,0,0,0,0,0,0,0.3258,0.3633,0.3697,0.3997,0.4233,0.4577,0.4716,0.4807,0.5062,0.5065,0.5309,0.539,0.5682,0.5859,0.5764,0.6245,0.6242,0.6271,0.6121,0.6129,0.6133,0.6091,0.5873,0,0,0,0,0,0.3257,0.3479,0.3799,0.4034,0.4147,0.4408,0.4558,0.4687,0.4949,0.5054,0.529,0.5548,0.5808,0.5977,0.6236,0.6539,0.6625,0.6657,0.666,0.6662,0.6689,0.6864,0.6883,0.6677,0.6677,0.6677,0,0,0.327,0.3501,0.363,0.4011,0.421,0.4443,0.4494,0.474,0.4917,0.5096,0.5402,0.5581,0.5885,0.6192,0.6341,0.635,0.6761,0.6676,0.6675,0.6702,0.6877,0.6896,0.6913,0.6684,0.6683,0.6682,0,0,0.3409,0.3602,0.3818,0.4011,0.4305,0.4475,0.4525,0.4851,0.4974,0.5281,0.5418,0.5635,0.6079,0.6289,0.6454,0.6653,0.6757,0.6731,0.676,0.6927,0.6943,0.6959,0.7037,0.7061,0.6753,0.6753,0.6753,0,0.3391,0.3736,0.3921,0.4155,0.4321,0.4473,0.4698,0.488,0.5249,0.5364,0.5362,0.5916,0.6132,0.6491,0.6537,0.6663,0.6736,0.6699,0.6923,0.6941,0.6959,0.7036,0.7064,0.6748,0.6749,0.6749,0.675,0,0.3699,0.3936,0.4076,0.4412,0.4592,0.4821,0.5047,0.5208,0.5316,0.5487,0.5798,0.6057,0.637,0.6462,0.6578,0.6837,0.6833,0.6873,0.6879,0.6971,0.7048,0.7078,0.6742,0.6744,0.6745,0.6746,0,0,0.379,0.4207,0.4257,0.4409,0.4737,0.4929,0.5162,0.5453,0.5589,0.5833,0.6043,0.6405,0.6441,0.6627,0.6766,0.691,0.7056,0.6935,0.6946,0.6955,0.7364,0.7339,0.737,0.7118,0.7124,0.7129,0.7341,0,0.3979,0.4393,0.4559,0.4901,0.5124,0.5263,0.5468,0.5694,0.5856,0.6076,0.6259,0.6514,0.6539,0.6652,0.6799,0.7006,0.7144,0.6992,0.7327,0.7337,0.7258,0.7409,0.7387,0.7575,0.7371,0.7376,0.738,0,0.4262,0.449,0.4849,0.514,0.5241,0.542,0.5698,0.5901,0.6161,0.6269,0.6465,0.6592,0.685,0.6822,0.7185,0.7077,0.7221,0.7342,0.7354,0.7406,0.7374,0.7475,0.764,0.7671,0.7428,0.7424,0.7421,0,0.4298,0.4697,0.4963,0.5087,0.5433,0.5556,0.5708,0.5961,0.6123,0.6366,0.6475,0.6748,0.6902,0.7113,0.7312,0.7273,0.7657,0.7647,0.7764,0.7759,0.7853,0.7847,0.8054,0.7923,0.7922,0.7922,0.7921,0,0.4502,0.4719,0.4983,0.5149,0.5394,0.5581,0.5823,0.5986,0.6206,0.6412,0.6548,0.674,0.6983,0.7207,0.7363,0.7642,0.7709,0.781,0.7852,0.7806,0.7794,0.7916,0.7912,0.793,0.7928,0.7926,0.7925,0,0.4595,0.4779,0.5078,0.5371,0.5449,0.5619,0.5876,0.6045,0.6202,0.646,0.6532,0.6787,0.7056,0.7268,0.7624,0.7729,0.8025,0.8065,0.7935,0.7959,0.8066,0.8057,0.8371,0.8424,0.8244,0.8245,0.8246,0,0.472,0.4886,0.519,0.5329,0.5475,0.57,0.586,0.6047,0.621,0.6509,0.6643,0.6917,0.7149,0.7573,0.7798,0.8069,0.8125,0.8213,0.8169,0.8115,0.8138,0.813,0.8151,0.8225,0.8226,0.8227,0.8227,0,0.4923,0.5001,0.522,0.5468,0.5651,0.586,0.6073,0.6181,0.6408,0.6585,0.6853,0.703,0.7381,0.7657,0.7947,0.8114,0.8214,0.8235,0.8279,0.8242,0.8162,0.8215,0.7961,0.8233,0.8233,0.8232,0.8232,0.8232,0.5046,0.5198,0.5432,0.5671,0.5844,0.6035,0.6206,0.6377,0.66,0.6893,0.6989,0.7267,0.7518,0.7915,0.8081,0.8307,0.8316,0.8376,0.8394,0.841,0.8408,0.811,0.836,0.836,0.836,0.836,0.836,0,0.5265,0.5416,0.563,0.5914,0.6101,0.6152,0.6387,0.6545,0.6783,0.7,0.7217,0.7525,0.7787,0.8022,0.8297,0.8433,0.8485,0.85,0.8501,0.8538,0.8382,0.8321,0.8453,0.8453,0.8453,0.8453,0.8453,0.8453,0.5402,0.5663,0.5766,0.6115,0.6269,0.6531,0.666,0.6839,0.7012,0.7344,0.7556,0.77,0.7928,0.8217,0.8461,0.8524,0.8625,0.8631,0.8707,0.8561,0.8549,0.8538,0.8483,0.8647,0.8648,0.8847,0.8849,0.885]},{"header":{"parameterUnit":"m.s-1","parameterCategory":1,"la1":30.2991,"la2":30.254,"lo1":-89.0895,"lo2":-89.0444,"dy":0.0017,"dx":0.0017,"nx":28,"ny":28,"refTime":"2023-07-22T09:00:00:Z","depth":0,"parameterNumber":3,"parameterNumberName":"V-component_of_WINDS"},"data":[0,0,0,0,0,0,0,0,0,0,0,0,0,0,0,0,0,0,0,0,0,0,0,0,0,0,0,0,0,0,0,0,0,0,0,0,0,0,0,0,0,0,0,0,0,0,0,0,0,0,0,0,0,0,0,0,0,0,-2.3812,-2.3813,0,-2.3895,-2.3896,-2.3897,-2.3806,-2.3802,-2.3799,-2.3796,-2.388,-2.3885,-2.3891,0,0,0,0,0,0,0,0,0,0,0,0,0,-2.3576,-2.3581,-2.3812,-2.3813,-2.3814,-2.3895,-2.3896,-2.3897,-2.3807,-2.3802,-2.3798,-2.3794,-2.3878,-2.3885,-2.3891,0,0,0,0,0,0,0,0,0,0,0,0,0,-2.3671,-2.3583,-2.3812,-2.3779,-2.3777,-2.3894,-2.3896,-2.3897,-2.3807,-2.3802,-2.3797,-2.3792,-2.3876,-2.3884,-2.3892,-2.4046,0,0,-2.3917,-2.3921,0,0,0,0,0,0,0,0,-2.3666,-2.368,-2.3783,-2.3781,-2.3779,-2.3835,-2.3843,-2.3947,-2.3809,-2.3796,-2.3796,-2.379,-2.3869,-2.3878,-2.3904,-2.405,-2.4054,-2.3918,-2.3923,-2.3926,-2.3929,0,0,0,0,0,0,0,-2.3659,-2.3676,-2.3845,-2.3784,-2.3782,-2.376,-2.3768,-2.3863,-2.386,-2.3796,-2.379,-2.3801,-2.3867,-2.3897,-2.3906,-2.4055,-2.3918,-2.3925,-2.393,-2.3933,-2.4328,-2.4333,0,0,0,0,0,0,-2.3656,-2.3671,-2.3842,-2.3847,-2.3708,-2.3768,-2.3777,-2.3822,-2.3859,-2.386,-2.3805,-2.3797,-2.3885,-2.3896,-2.3908,-2.4085,-2.3926,-2.3934,-2.3939,-2.4322,-2.4329,-2.4335,0,0,0,0,0,0,-2.3652,-2.3673,-2.3839,-2.3757,-2.3777,-2.3778,-2.3829,-2.3826,-2.3855,-2.3866,-2.3865,-2.3836,-2.3882,-2.3897,-2.4012,-2.4087,-2.3938,-2.3945,-2.4315,-2.4324,-2.4332,-2.4445,0,0,0,0,0,0,-2.3645,-2.3671,-2.3729,-2.3759,-2.3781,-2.3941,-2.3834,-2.3832,-2.387,-2.3859,-2.3894,-2.3895,-2.3879,-2.4,-2.402,-2.4096,-2.3952,-2.4308,-2.4319,-2.4329,-2.4434,-2.4456,-2.4475,0,0,0,0,0,-2.3637,-2.3759,-2.3733,-2.3754,-2.3854,-2.3945,-2.3958,-2.3936,-2.3877,-2.3934,-2.3941,-2.3894,-2.4079,-2.4013,-2.4034,-2.4114,-2.4303,-2.4316,-2.4328,-2.4425,-2.4452,-2.4474,0,0,0,0,0,0,-2.3737,-2.3762,-2.3733,-2.3868,-2.3906,-2.393,-2.4001,-2.3966,-2.4021,-2.4008,-2.398,-2.3989,-2.411,-2.4125,-2.4051,-2.4263,-2.4181,-2.4198,-2.4247,-2.4273,-2.4292,-2.4282,-2.3958,0,0,0,0,0,-2.3776,-2.3848,-2.3866,-2.3983,-2.4003,-2.4,-2.4039,-2.402,-2.4057,-2.4072,-2.4087,-2.4125,-2.419,-2.4234,-2.4296,-2.444,-2.4443,-2.4506,-2.4526,-2.4543,-2.4555,-2.4627,-2.4653,-2.4376,-2.4376,-2.4375,0,0,-2.3854,-2.3877,-2.3923,-2.4004,-2.403,-2.4103,-2.4013,-2.4096,-2.415,-2.4084,-2.419,-2.4205,-2.4245,-2.4374,-2.4431,-2.439,-2.4634,-2.4558,-2.4572,-2.4575,-2.4642,-2.4668,-2.4692,-2.4384,-2.4383,-2.4381,0,0,-2.4032,-2.406,-2.4157,-2.4186,-2.4227,-2.4225,-2.4249,-2.428,-2.4285,-2.4394,-2.4345,-2.441,-2.4526,-2.4554,-2.4584,-2.4778,-2.4734,-2.48,-2.4902,-2.4972,-2.4994,-2.5013,-2.5075,-2.5098,-2.4814,-2.4815,-2.4815,0,-2.4123,-2.4232,-2.4212,-2.4297,-2.4332,-2.428,-2.4377,-2.4407,-2.4467,-2.4491,-2.4446,-2.4588,-2.4612,-2.4744,-2.4791,-2.482,-2.4843,-2.479,-2.4993,-2.5012,-2.5029,-2.5087,-2.5112,-2.4822,-2.4821,-2.482,-2.4819,0,-2.4339,-2.4416,-2.4491,-2.4548,-2.4593,-2.4685,-2.4678,-2.4727,-2.4706,-2.4709,-2.4818,-2.4846,-2.491,-2.4943,-2.4923,-2.5071,-2.5043,-2.4997,-2.4911,-2.5063,-2.5116,-2.5139,-2.4832,-2.4829,-2.4827,-2.4825,0,0,-2.4574,-2.4622,-2.4649,-2.4673,-2.4717,-2.4775,-2.4866,-2.4929,-2.4967,-2.5014,-2.5084,-2.5185,-2.5141,-2.5176,-2.516,-2.5224,-2.5367,-2.5168,-2.5169,-2.5197,-2.5524,-2.5552,-2.5579,-2.5343,-2.5347,-2.5351,-2.5518,0,-2.4747,-2.4899,-2.4886,-2.503,-2.5099,-2.5052,-2.513,-2.5165,-2.5171,-2.523,-2.5238,-2.5306,-2.5247,-2.5267,-2.5329,-2.5336,-2.543,-2.5326,-2.5403,-2.5406,-2.5384,-2.5608,-2.5639,-2.5795,-2.554,-2.5544,-2.5546,0,-2.4966,-2.5017,-2.5168,-2.52,-2.5228,-2.5298,-2.5353,-2.5413,-2.5451,-2.5452,-2.5491,-2.5466,-2.5554,-2.5475,-2.5595,-2.5523,-2.5556,-2.5566,-2.5571,-2.557,-2.5478,-2.5605,-2.5846,-2.5866,-2.5581,-2.5578,-2.5576,0,-2.5112,-2.522,-2.5323,-2.5347,-2.5389,-2.5438,-2.5458,-2.5492,-2.553,-2.5581,-2.5605,-2.5666,-2.5697,-2.5745,-2.5735,-2.568,-2.5856,-2.5777,-2.5853,-2.5853,-2.5884,-2.588,-2.6124,-2.5922,-2.5921,-2.5921,-2.592,0,-2.53,-2.5392,-2.5388,-2.5451,-2.5553,-2.5539,-2.564,-2.5654,-2.5686,-2.5749,-2.5717,-2.5777,-2.5765,-2.5825,-2.582,-2.5916,-2.5934,-2.5933,-2.5928,-2.593,-2.5929,-2.5944,-2.5929,-2.5927,-2.5926,-2.5924,-2.5923,0,-2.5475,-2.5478,-2.5585,-2.5617,-2.5628,-2.5701,-2.5727,-2.5786,-2.5792,-2.5873,-2.5891,-2.59,-2.5969,-2.5967,-2.6047,-2.6043,-2.6159,-2.6147,-2.6144,-2.6138,-2.6212,-2.6202,-2.6466,-2.6498,-2.6283,-2.6285,-2.6287,0,-2.5589,-2.5659,-2.5699,-2.5739,-2.5762,-2.5828,-2.5867,-2.5858,-2.59,-2.595,-2.6002,-2.6069,-2.612,-2.6233,-2.6245,-2.6305,-2.6289,-2.6378,-2.6297,-2.6295,-2.628,-2.6272,-2.6276,-2.639,-2.6392,-2.6394,-2.6396,0,-2.579,-2.5789,-2.5846,-2.5905,-2.5952,-2.5998,-2.604,-2.6075,-2.6071,-2.612,-2.619,-2.6231,-2.6312,-2.6376,-2.6434,-2.6454,-2.6422,-2.6423,-2.6442,-2.644,-2.6432,-2.6429,-2.6177,-2.6414,-2.6413,-2.6411,-2.641,-2.641,-2.5933,-2.5991,-2.6027,-2.6092,-2.6124,-2.6164,-2.6219,-2.6233,-2.6292,-2.6356,-2.6349,-2.6426,-2.6464,-2.6538,-2.6564,-2.6623,-2.6591,-2.6622,-2.6627,-2.6633,-2.6637,-2.6432,-2.6635,-2.6635,-2.6634,-2.6634,-2.6633,0,-2.6124,-2.6147,-2.6207,-2.6267,-2.6318,-2.629,-2.6335,-2.6379,-2.6447,-2.6486,-2.6538,-2.6617,-2.6681,-2.67,-2.6761,-2.6804,-2.6791,-2.682,-2.6811,-2.6815,-2.6666,-2.6639,-2.6829,-2.6829,-2.6829,-2.6829,-2.6829,-2.6828,-2.6229,-2.6324,-2.6328,-2.6438,-2.646,-2.6535,-2.6563,-2.6599,-2.6629,-2.672,-2.6772,-2.6786,-2.6816,-2.6879,-2.6935,-2.6939,-2.6959,-2.6992,-2.6989,-2.6847,-2.6827,-2.6807,-2.6781,-2.6998,-2.6999,-2.7132,-2.7134,-2.7135]}]]